TIME,DELAY(SENSOR),PRES,T(CTD),SAL,OXYGEN,RAWTEMP,T(OPTODE),TCPHASE,TURBIDITY,TURBIDITY_GAIN,FLUOR,BETA,CDOM,CHECK
1340059610,5787,295.7699890136719000,12.1984996795654300,35.5671005249023440,265.3293151855469000,423.1231079101562500,12.1953201293945310,32.2929992675781250,16,3,48,95,61,38214
1340059669,5788,293.5899963378906000,12.2107000350952150,35.5685997009277340,265.0628051757812500,422.7236938476562500,12.2075796127319340,32.2984695434570300,16,3,49,95,61,3658
1340059728,5790,291.4299926757812500,12.2137002944946290,35.5676002502441400,265.1015014648437500,422.5927124023437500,12.2116003036499020,32.2952117919921900,16,3,48,96,61,30120
1340059787,5790,289.3099975585937500,12.2075996398925780,35.5652008056640600,266.2542114257812500,422.7060852050781000,12.2081203460693360,32.2470893859863300,16,3,48,98,61,2956
1340059846,5791,287.2000122070312500,12.1928997039794920,35.5583000183105500,267.5914916992187500,423.2049865722656000,12.1927995681762700,32.1967506408691400,16,3,49,96,61,2758
1340059907,5787,285.0599975585937500,12.1826000213623050,35.5545997619628900,268.7992858886719000,423.5751037597656000,12.1814403533935550,32.1506690979003900,16,3,49,97,61,23254
1340059966,5787,282.9899902343750000,12.1731996536254880,35.5522003173828100,269.3428955078125000,423.8096923828125000,12.1742296218872070,32.1310997009277340,16,3,50,95,60,30320
1340060025,5787,280.9500122070312500,12.1698999404907230,35.5499000549316400,269.9126892089844000,423.9584045410156000,12.1696701049804690,32.1090202331543000,16,3,49,97,60,13301
1340060084,5786,278.8800048828125000,12.1683998107910160,35.5476989746093750,270.5231933593750000,424.0270996093750000,12.1675596237182620,32.0840492248535160,16,3,49,96,61,60695
1340060174,5786,274.9299926757812500,12.1560001373291020,35.5415000915527340,272.1665039062500000,424.3934936523437500,12.1563100814819340,32.0201301574707000,16,3,48,95,61,54855
1340060237,5789,271.2099914550781000,12.1660995483398440,35.5415992736816400,273.1622009277344000,424.1339111328125000,12.1642799377441400,31.9746799468994140,16,3,50,95,60,26190
1340060300,5790,267.2999877929687500,12.1715002059936520,35.5420989990234400,273.5076904296875000,423.9880065917969000,12.1687602996826170,31.9579792022705080,16,3,48,98,61,36484
1340060359,5788,263.5499877929687500,12.2079000473022460,35.5483016967773440,273.5751953125000000,422.6729125976562500,12.2091398239135740,31.9360008239746100,16,3,49,97,60,13270
1340060445,5789,258.7000122070312500,12.2103996276855470,35.5467987060546900,273.8239135742187500,422.6141967773437500,12.2109403610229500,31.9248008728027340,16,3,50,99,62,47664
1340060504,5789,256.1900024414062500,12.2537002563476560,35.5556983947753900,273.5437011718750000,421.4554138183594000,12.2465200424194340,31.9192104339599600,16,3,49,94,60,61430
1340060567,5789,253.5200042724609400,12.2931995391845700,35.5625991821289060,273.1535034179687500,420.2120056152344000,12.2846803665161130,31.9174194335937500,15,3,49,97,60,10366
1340060626,5787,251.0599975585937500,12.3113002777099610,35.5657997131347660,272.7926940917969000,419.4309082031250000,12.3086500167846680,31.9211597442626950,16,3,49,97,61,5374
1340060689,5786,248.4499969482422000,12.3240003585815430,35.5684013366699200,272.3692016601562500,419.0651855468750000,12.3198699951171880,31.9335899353027340,16,3,49,97,61,52166
1340060748,5786,246.0200042724609400,12.3317003250122070,35.5693016052246100,272.2412109375000000,418.7770080566406000,12.3287096023559570,31.9346904754638670,16,3,49,95,60,16770
1340060811,5789,243.4700012207031200,12.3332996368408200,35.5676994323730500,272.3085021972656000,418.6452941894531000,12.3327598571777340,31.9298591613769530,15,3,49,98,61,38225
1340060872,5787,241.0700073242187500,12.3572998046875000,35.5696983337402340,272.0823059082031000,417.9899902343750000,12.3528604507446290,31.9298191070556640,16,3,50,97,60,49388
1340060958,5787,237.1399993896484400,12.3542995452880860,35.5662002563476560,272.0899963378906000,417.9890136718750000,12.3528900146484380,31.9295597076416000,16,3,49,98,61,33870
1340061017,5790,233.6300048828125000,12.3603000640869140,35.5633010864257800,273.3328857421875000,417.7655944824219000,12.3597402572631840,31.8740692138671880,16,3,50,97,60,3639
1340061080,5788,229.9499969482422000,12.3662004470825200,35.5621986389160160,274.2550964355469000,417.6271057128906000,12.3639898300170900,31.8336505889892580,16,3,49,98,60,12795
1340061139,5790,226.6199951171875000,12.3725004196167000,35.5634994506835940,274.9426879882812500,417.4112854003906000,12.3706102371215820,31.8020896911621100,16,3,49,96,60,48985
1340061202,5786,223.1999969482422000,12.3753004074096680,35.5625000000000000,275.6142883300781000,417.3208007812500000,12.3733901977539060,31.7730598449707030,16,3,49,97,61,46875
1340061261,5787,220.1399993896484400,12.3709001541137700,35.5573005676269500,276.4103088378906000,417.4263000488281000,12.3701496124267580,31.7416801452636720,16,3,50,99,59,59911
1340061324,5791,217.0099945068359400,12.3840999603271480,35.5565986633300800,277.7012023925781000,416.9030151367187500,12.3862104415893550,31.6810207366943360,16,3,49,98,61,57192
1340061383,5788,214.1699981689453000,12.4041004180908200,35.5596008300781250,278.8276062011719000,416.4144897460937500,12.4011898040771480,31.6281700134277340,10,3,48,98,60,17805
1340061446,5790,211.2500000000000000,12.4202995300292970,35.5611991882324200,279.1513977050781000,415.8843078613281000,12.4174499511718750,31.6070499420166000,16,3,49,98,61,5855
1340061507,5790,208.5299987792968800,12.4314002990722660,35.5621986389160160,279.0635070800781000,415.4483032226562500,12.4308204650878900,31.6044998168945300,16,3,49,100,60,15418
1340061570,5790,205.6900024414062500,12.4400997161865230,35.5620002746582000,280.0274963378906000,415.2135925292969000,12.4380197525024410,31.5619106292724600,16,3,49,98,59,51306
1340061629,5788,203.0500030517578000,12.4766998291015620,35.5660018920898440,280.5114135742187500,414.1559143066406000,12.4704504013061520,31.5269203186035160,16,3,49,98,60,949
1340061692,5790,200.2799987792968800,12.4865999221801760,35.5656013488769500,282.4097900390625000,413.6818847656250000,12.4849796295166020,31.4437198638916000,16,3,50,100,60,3784
1340061751,5790,197.7700042724609400,12.4960002899169920,35.5658988952636700,283.4269104003906000,413.3398132324219000,12.4954700469970700,31.3980598449707030,16,3,49,101,60,48882
1340061814,5790,195.0899963378906200,12.5193996429443360,35.5699996948242200,283.7582092285156000,412.5559997558594000,12.5194997787475590,31.3733692169189450,16,3,49,101,59,37660
1340061873,5790,192.6000061035156200,12.5352001190185550,35.5732994079589840,283.3930969238281000,411.9114074707031000,12.5392599105834960,31.3788604736328120,16,3,50,99,60,51395
1340061936,5789,189.9499969482422000,12.5675001144409180,35.5770988464355500,282.9418945312500000,411.3698120117187500,12.5558595657348630,31.3887996673584000,16,3,50,100,59,47697
1340061995,5787,187.4600067138672000,12.5829000473022460,35.5775985717773440,283.8063049316406000,410.5681152343750000,12.5804195404052730,31.3429298400878900,16,3,50,99,59,44776
1340062058,5789,184.7599945068359400,12.5930995941162110,35.5778007507324200,283.1322937011719000,409.9793090820312500,12.5984697341918950,31.3610801696777340,16,3,50,100,60,13137
1340062119,5790,182.1100006103515600,12.6119003295898440,35.5797004699707000,283.2410888671875000,409.5516052246094000,12.6115703582763670,31.3508090972900400,16,3,48,100,60,35338
1340062182,5790,179.3899993896484400,12.6185998916625980,35.5811004638671900,283.2681884765625000,409.3497009277344000,12.6177597045898440,31.3466796875000000,16,3,47,100,59,24437
1340062241,5789,176.8999938964843800,12.6204996109008790,35.5817985534668000,283.4096069335937500,409.2503051757812500,12.6208000183105470,31.3397407531738280,15,3,48,101,60,27339
1340062304,5791,174.2100067138672000,12.6256999969482420,35.5825004577636700,283.4079895019531000,409.0606079101562500,12.6266202926635740,31.3369293212890620,16,3,50,100,60,38288
1340062363,5791,171.7100067138672000,12.6315002441406250,35.5811004638671900,283.6571960449219000,409.2467956542969000,12.6209096908569340,31.3298606872558600,16,3,49,99,59,1314
1340062426,5787,169.0800018310547000,12.5932998657226560,35.5663986206054700,286.3360900878906000,409.9628906250000000,12.5989704132080080,31.2341499328613280,16,3,49,99,59,26861
1340062485,5789,166.6499938964843800,12.5925998687744140,35.5640983581543000,288.3508911132812500,410.1304931640625000,12.5938301086425780,31.1572093963623050,16,3,49,103,61,64439
1340062548,5789,164.1199951171875000,12.6020002365112300,35.5656013488769500,289.1182861328125000,409.8587036132812500,12.6021604537963870,31.1234397888183600,16,3,49,98,60,36351
1340062607,5791,161.8399963378906200,12.6091003417968750,35.5663986206054700,289.4125976562500000,409.6524963378906000,12.6084804534912110,31.1090202331542970,16,3,50,99,60,9095
1340062694,5789,157.8500061035156200,12.6176004409790040,35.5680007934570300,290.1423034667969000,409.3432922363281000,12.6179504394531250,31.0762691497802730,16,3,50,98,60,58278
1340062755,5788,154.3000030517578000,12.6367998123168950,35.5713996887207000,290.3793029785156000,408.7090148925781000,12.6373901367187500,31.0579109191894530,16,3,50,99,59,40542
1340062818,5788,150.6499938964843800,12.6922998428344730,35.5814018249511700,290.2497863769531000,406.9805908203125000,12.6903295516967770,31.0384006500244140,16,3,50,101,59,54866
1340062877,5787,147.3500061035156200,12.7130002975463870,35.5844001770019500,289.5682983398437500,406.2532043457031000,12.7125997543334960,31.0545291900634770,16,3,50,100,59,3155
1340062940,5790,143.8099975585937500,12.7385997772216800,35.5873985290527340,289.7789001464844000,405.4027099609375000,12.7386503219604500,31.0340003967285160,16,3,50,98,59,19890
1340062999,5790,140.5099945068359400,12.7649002075195310,35.5920982360839840,289.9549865722656000,404.4607849121094000,12.7674903869628900,31.0137500762939450,16,3,50,99,59,10470
1340063062,5788,136.9700012207031200,12.8133001327514650,35.6016006469726560,290.9903869628906000,403.0963134765625000,12.8092603683471680,30.9543304443359380,16,3,50,98,59,63206
1340063121,5789,133.6600036621093800,12.8177003860473630,35.6015014648437500,291.3128051757812500,402.8176879882812500,12.8177795410156250,30.9380302429199220,16,3,50,97,59,16758
1340063184,5789,130.1000061035156200,12.8563995361328120,35.6078987121582000,291.4378967285156000,401.5440063476562500,12.8567695617675780,30.9148998260498050,16,3,50,98,60,58820
1340063243,5788,126.7799987792968800,12.8748998641967770,35.6108016967773440,291.4663085937500000,400.9258117675781000,12.8756799697875980,30.9052200317382800,16,3,48,98,59,21159
1340063306,5788,123.3399963378906200,12.8961000442504880,35.6150016784668000,291.3395080566406000,400.1907043457031000,12.8981800079345700,30.8994808197021500,16,3,50,96,59,48494
1340063367,5787,120.0599975585937500,12.9145002365112300,35.6147003173828100,290.2171020507812500,399.3026123046875000,12.9253501892089840,30.9303493499755860,16,3,50,96,58,41444
1340063430,5786,116.6999969482421900,12.9591999053955080,35.6203994750976560,289.9949951171875000,398.1978149414062500,12.9591398239135740,30.9230995178222660,16,3,50,99,59,61307
1340063489,5790,113.6299972534179700,12.9869003295898440,35.6245002746582000,289.5307922363281000,397.2857055664062500,12.9870395660400390,30.9281005859375000,16,3,50,98,59,19598
1340063552,5790,110.3000030517578100,13.0230998992919920,35.6282997131347660,289.0177001953125000,395.9754028320312500,13.0271100997924800,30.9293498992919920,16,3,52,101,60,20895
1340063611,5790,107.1900024414062500,13.1049995422363280,35.6355018615722660,288.4081115722656000,393.6787109375000000,13.0973300933837890,30.9206790924072270,16,3,51,98,59,46077
1340063674,5788,103.9700012207031200,13.1920003890991210,35.6428985595703100,288.6882019042969000,390.8280944824219000,13.1844501495361330,30.8696899414062500,15,3,53,102,59,50832
1340063733,5790,100.9100036621093800,13.3140001296997070,35.6524009704589840,288.7851867675781000,387.0122985839844000,13.3010101318359380,30.8119907379150400,10,3,55,106,58,3226
1340063796,5789,97.6500015258789000,13.3618001937866210,35.6567993164062500,289.1708984375000000,385.1617126464844000,13.3575201034545900,30.7709999084472660,16,3,55,109,60,52071
